Matecaña International Airport
SKPE : rendu visible

Aérodrome :











RETROUVEZ-NOUS SUR...

 
LOGIN :

S'inscrire | Disclaimer

   EN    FR    IT 

 









Légende :    VFR   VFR Marginal   IFR   IFR Intensif   IFR Très Intensif
Visi : 
Plafond : 
>= 8 km
>= 3000ft
5 à 8 km
1000 à 3000 ft
1500m à 5 km
500 à 1000 ft
800 à 1500m
200 à 500 ft
< 800m
< 200 ft
Symboles :   Orages  Brouillard  Fortes neiges  Fortes précipitations  Vent > 20 kt






- Altitude de l'aérodrome : 4416 ft
- Code IATA : PEI


SKPE - Matecaña International

DERNIER METAR :
  • 271200Z 09004KT 9999 FEW012 SCT080 20/20 A3007

METARs EXPIRÉS :
  • 271100Z 12004KT 9999 SCT012 SCT080 20/20 A3006

TAF TAF SKPE
Valide du 27 à 12h jusqu'au 28 à 12h UTC


271030Z 2712/2812 12004KT 9999 SCT015 SCT080
TEMPO 2712/2713 5000 BCFG -DZ SCT010
BECMG 2713/2715 32008KT
TEMPO 2719/2723 6000 RA SCT015CB
BECMG 2800/2802 10004KT
TEMPO 2809/2812 4000 BR SCT010 TX27/2719Z TN19/2810Z
FIR SKED / Amérique du Sud



MET'MAP, la Météo Aéronautique d'un coup d'oeil ! - Copyright ORBIFLY Décembre 2007 - Disclaimer

ORBIFLY MET'MAP TEAM :

Programmation & Développement : Alexandra Zaïnal
Sur une idée originale de : Baudouin d'Aumeries
Assistance à la programmation : Marc-Olivier Méhu
Soutien technique & logistique : Manuel Goepfert

Contact : metmap@orbifly.com




SOURCES & CREDITS :

   NOAA       Earth
Advisory